Date String (YYYY-MM-DD hh:mm:ss) UTC,Instrument flags,absolute air pressure of the measurement (hPa),sample flow rate (lpm),inlet stack bypass flow (lpm),air temperature of the measurement (°C),ambient temperature measured by the external sensor (°C),aerosol sample conditioner tube jacket temperature (°C),OPC LED temperature (°C),internal box temperature (°C),relative humidity of the measurement (%),span deviation,mass concentration of particles derived from Lorenz-Mie calculation of OPC scattering (μg/m³),mass concentration of particles derived from Lorenz-Mie calculation of OPC scattering (μg/m³),mass concentration of particles derived from Lorenz-Mie calculation of OPC scattering (μg/m³)
DateTimeUTC,F1_M11,P_M11,Q1_M11,Q2_M11,T1_M11,T2_M11,T3_M11,T4_M11,T5_M11,U1_M11,ZSPAN_M11,X2_M11,X0_M11,X1_M11
2023-08-13 13:00:00,SystemResetWarning,0835.3,5.00,000.00,029.6,028.3,000.0,038.1,031.2,30.0,0000.0,0005.53,0012.30,0004.42
2023-08-13 13:01:00,SystemResetWarning,0835.4,5.00,000.00,029.6,028.4,000.0,038.1,031.3,28.7,0000.0,0005.49,0012.70,0004.39
2023-08-13 13:02:00,SystemResetWarning,0835.5,5.00,000.00,029.6,028.5,000.0,038.1,031.3,28.6,-000.7,0005.47,0013.58,0004.38
2023-08-13 13:03:00,SystemResetWarning,0835.5,5.00,000.00,029.6,028.5,000.0,038.1,031.3,28.6,-001.7,0005.44,0014.20,0004.37
2023-08-13 13:04:00,SystemResetWarning,0835.5,5.01,000.00,029.7,028.6,000.0,038.1,031.4,28.5,-001.7,0005.45,0014.50,0004.35
2023-08-13 13:05:00,SystemResetWarning,0835.5,5.01,000.00,029.7,028.6,000.0,038.2,031.4,28.3,-001.0,0005.48,0014.39,0004.32
2023-08-13 13:06:00,SystemResetWarning,0835.5,4.99,000.00,029.7,028.1,000.0,038.1,031.3,28.4,0000.0,0005.43,0013.89,0004.29
2023-08-13 13:07:00,SystemResetWarning,0835.5,4.99,000.00,029.7,026.4,000.0,038.0,031.0,28.8,0000.0,0005.39,0013.72,0004.25
2023-08-13 13:08:00,SystemResetWarning,0835.5,5.00,000.00,029.6,025.9,000.0,037.9,030.9,28.8,0000.0,0005.30,0014.00,0004.23
2023-08-13 13:09:00,SystemResetWarning,0835.5,5.01,000.00,029.5,026.1,000.0,037.9,030.8,28.9,0000.0,0005.28,0014.47,0004.21
2023-08-13 13:10:00,SystemResetWarning,0835.5,5.00,000.00,029.5,026.4,000.0,038.0,030.8,29.5,0000.0,0005.23,0014.34,0004.20
2023-08-13 13:11:00,SystemResetWarning,0835.5,5.00,000.00,029.4,026.7,000.0,038.0,030.9,29.6,0000.0,0005.20,0014.55,0004.18
2023-08-13 13:12:00,SystemResetWarning,0835.6,5.00,000.00,029.4,027.1,000.0,038.0,031.0,29.6,0000.0,0005.17,0014.73,0004.18
2023-08-13 13:13:00,SystemResetWarning,0835.6,5.00,000.00,029.5,027.3,000.0,038.0,031.0,28.5,0000.0,0005.13,0014.60,0004.17
2023-08-13 13:14:00,SystemResetWarning,0835.6,5.00,000.00,029.5,027.6,000.0,038.1,031.1,28.5,0000.0,0005.07,0014.68,0004.15
2023-08-13 13:15:00,SystemResetWarning,0835.6,4.99,000.00,029.5,027.8,000.0,038.1,031.1,28.2,0000.0,0005.03,0014.18,0004.13
2023-08-13 13:16:00,SystemResetWarning,0835.6,5.00,000.00,029.5,028.0,000.0,038.1,031.2,27.7,0000.0,0004.97,0013.44,0004.13
2023-08-13 13:17:00,SystemResetWarning,0835.6,5.00,000.00,029.6,028.1,000.0,038.1,031.2,28.1,0000.0,0004.96,0013.73,0004.13
2023-08-13 13:18:00,SystemResetWarning,0835.6,5.00,000.00,029.6,028.2,000.0,038.1,031.3,28.1,0000.0,0004.97,0013.62,0004.14
2023-08-13 13:19:00,SystemResetWarning,0835.7,5.00,000.00,029.6,028.3,000.0,038.1,031.3,28.1,0000.0,0005.03,0014.25,0004.15
2023-08-13 13:20:00,SystemResetWarning,0835.7,5.00,000.00,029.6,028.4,000.0,038.1,031.3,28.2,0000.0,0005.00,0013.39,0004.14
2023-08-13 13:21:00,SystemResetWarning,0835.7,5.00,000.00,029.7,028.5,000.0,038.2,031.4,28.2,0000.0,0005.00,0014.33,0004.14
2023-08-13 13:22:00,SystemResetWarning,0835.7,4.99,000.00,029.7,028.5,000.0,038.2,031.4,27.7,0000.0,0005.01,0015.12,0004.13
2023-08-13 13:23:00,SystemResetWarning,0835.7,4.99,000.00,029.7,027.3,000.0,038.1,031.2,27.2,0000.0,0004.98,0015.16,0004.11
2023-08-13 13:24:00,SystemResetWarning,0835.7,5.00,000.00,029.6,025.5,000.0,037.9,030.9,26.6,0000.0,0004.99,0014.65,0004.11
2023-08-13 13:25:00,SystemResetWarning,0835.8,5.00,000.00,029.5,025.0,000.0,037.8,030.7,27.0,0000.0,0004.99,0014.20,0004.11
2023-08-13 13:26:00,SystemResetWarning,0835.8,5.01,000.00,029.4,025.2,000.0,037.8,030.5,27.4,0000.0,0005.01,0013.91,0004.09
2023-08-13 13:27:00,SystemResetWarning,0835.8,5.01,000.00,029.3,025.6,000.0,037.9,030.5,27.0,0000.0,0005.02,0014.12,0004.08
2023-08-13 13:28:00,SystemResetWarning,0835.8,4.99,000.00,029.3,026.1,000.0,037.9,030.7,27.3,0000.0,0005.03,0014.05,0004.06
2023-08-13 13:29:00,SystemResetWarning,0835.8,5.00,000.00,029.3,026.5,000.0,037.9,030.7,28.0,0000.0,0005.03,0014.64,0004.04
2023-08-13 13:30:00,SystemResetWarning,0835.8,5.01,000.00,029.3,026.8,000.0,037.9,030.8,27.5,0000.0,0004.95,0013.97,0004.02
2023-08-13 13:31:00,SystemResetWarning,0835.8,5.00,000.00,029.3,027.1,000.0,037.9,030.9,27.0,0000.0,0004.88,0013.72,0004.00
2023-08-13 13:32:00,SystemResetWarning,0835.8,5.00,000.00,029.3,027.4,000.0,037.9,030.9,26.9,0000.0,0004.85,0013.27,0003.97
2023-08-13 13:33:00,SystemResetWarning,0835.8,5.00,000.00,029.3,027.6,000.0,037.9,031.0,27.2,0000.0,0004.86,0012.65,0003.97
2023-08-13 13:34:00,SystemResetWarning,0835.8,4.99,000.00,029.4,027.8,000.0,037.9,031.0,27.5,0000.0,0004.87,0012.36,0003.96
2023-08-13 13:35:00,SystemResetWarning,0835.8,5.00,000.00,029.4,027.9,000.0,037.9,031.1,27.3,0000.0,0004.88,0012.16,0003.95
2023-08-13 13:36:00,SystemResetWarning,0835.9,5.00,000.00,029.4,028.1,000.0,038.0,031.1,27.4,0000.0,0004.85,0011.65,0003.94
2023-08-13 13:37:00,SystemResetWarning,0835.9,5.00,000.00,029.5,028.2,000.0,038.0,031.2,26.9,0000.0,0004.80,0011.44,0003.94
2023-08-13 13:38:00,SystemResetWarning,0835.9,5.00,000.00,029.5,028.3,000.0,038.0,031.2,26.9,0000.0,0004.77,0011.45,0003.94
2023-08-13 13:39:00,SystemResetWarning,0835.9,5.00,000.00,029.5,028.4,000.0,038.0,031.2,27.3,0000.0,0004.76,0011.30,0003.93
2023-08-13 13:40:00,SystemResetWarning,0835.9,5.00,000.00,029.6,028.4,000.0,038.0,031.3,27.2,0000.0,0004.68,0010.85,0003.91
2023-08-13 13:41:00,SystemResetWarning,0835.9,5.00,000.00,029.6,028.5,000.0,038.1,031.3,26.0,0000.0,0004.66,0011.23,0003.90
2023-08-13 13:42:00,SystemResetWarning,0835.9,5.01,000.00,029.6,028.6,000.0,038.1,031.3,25.8,0000.0,0004.63,0011.59,0003.90
2023-08-13 13:43:00,SystemResetWarning,0836.1,5.01,000.00,029.7,028.6,000.0,038.1,031.4,26.1,0000.0,0004.61,0012.30,0003.90
2023-08-13 13:44:00,SystemResetWarning,0836.1,4.99,000.00,029.7,028.6,000.0,038.1,031.4,26.1,0000.0,0004.53,0013.03,0003.89
2023-08-13 13:45:00,SystemResetWarning,0836.1,4.99,000.00,029.7,027.2,000.0,038.0,031.1,25.7,0000.0,0004.51,0013.33,0003.89
2023-08-13 13:46:00,SystemResetWarning,0836.0,5.00,000.00,029.6,025.5,000.0,037.9,030.8,25.9,0000.0,0004.44,0013.28,0003.86
2023-08-13 13:47:00,SystemResetWarning,0836.0,5.01,000.00,029.5,025.2,000.0,037.8,030.6,26.0,0000.0,0004.39,0013.47,0003.83
2023-08-13 13:48:00,SystemResetWarning,0836.0,5.01,000.00,029.4,025.5,000.0,037.8,030.5,25.8,0000.0,0004.39,0013.57,0003.80
2023-08-13 13:49:00,SystemResetWarning,0836.1,4.99,000.00,029.3,025.9,000.0,037.9,030.6,26.3,0000.0,0004.38,0013.44,0003.77
2023-08-13 13:50:00,SystemResetWarning,0836.1,5.01,000.00,029.3,026.3,000.0,037.9,030.7,26.3,0000.0,0004.36,0013.51,0003.75
2023-08-13 13:51:00,SystemResetWarning,0836.1,5.00,000.00,029.3,026.7,000.0,037.9,030.8,26.5,0000.0,0004.35,0013.15,0003.74
2023-08-13 13:52:00,SystemResetWarning,0836.2,5.00,000.00,029.3,027.0,000.0,037.9,030.9,26.2,0000.0,0004.36,0012.62,0003.73
2023-08-13 13:53:00,SystemResetWarning,0836.2,5.00,000.00,029.3,027.3,000.0,037.9,030.9,25.7,0000.0,0004.36,0012.53,0003.72
2023-08-13 13:54:00,SystemResetWarning,0836.2,5.00,000.00,029.4,027.5,000.0,037.9,031.0,26.2,0000.0,0004.36,0011.95,0003.71
2023-08-13 13:55:00,SystemResetWarning,0836.2,5.00,000.00,029.4,027.7,000.0,037.9,031.0,25.7,0000.0,0004.36,0010.79,0003.71
2023-08-13 13:56:00,SystemResetWarning,0836.2,5.00,000.00,029.4,027.9,000.0,037.9,031.1,25.4,0000.0,0004.30,0010.11,0003.69
2023-08-13 13:57:00,SystemResetWarning,0836.2,5.00,000.00,029.4,028.1,000.0,038.0,031.1,25.4,0000.0,0004.29,0010.16,0003.68
2023-08-13 13:58:00,SystemResetWarning,0836.3,5.00,000.00,029.5,028.2,000.0,038.0,031.2,25.2,0000.0,0004.28,0010.49,0003.69
2023-08-13 13:59:00,SystemResetWarning,0836.4,5.00,000.00,029.5,028.3,000.0,038.0,031.2,25.8,0000.0,0004.25,0010.40,0003.68
